[Date Prev][Date Next][Thread Prev][Thread Next][Date Index][Thread Index][JAMSAT Home]

[jamsat-news:1774] jas2info #305


========================   最新情報   ==============================

        Last updated  03Feb2003  21:25(JST)   #305

====================================================================
   
1)アマチュア通信衛星情報、FOシリーズの軌道要素、テレメトリ、QSOの
   状況等をまとめてみました.
   
 FO−29の2003年2月3日(月)の16:56(JST)のパスでは
JARLのホームページにあるとうりアナログ運用でした。 今日までの観測した
テレメトリーと本日のテレメトリ最終行の分析結果を報告しておきます。

AS31925C  03Feb2003
16:57-17:14(JST)
AOS   MEL  LOS  Elev
  4   292  217  40.6
Freq. 435.805-.788Hz
(JAS-2  No.116 B 2770-3135 END  No.117 A 0-220)

HI HI AE 07 88 55 00 D4 00 00 09 00 65 55 55 57 8B 8A 97 82 A7 A6 A6 A6 A0 
HI HI AE 07 88 55 00 D4 00 00 09 00 48 61 62 52 8B 89 96 81 A7 A6 A7 A6 A0 
HI HI AE 07 88 55 00 D4 00 00 09 00 6F 7F 4C 63 8A 88 94 6D A7 A6 A7 A6 A0 
HI HI AE 07 88 55 00 D4 00 00 09 00 56 A8 71 53 8A 89 97 80 A7 A6 A7 A6 A0 
HI HI AE 07 88 55 00 D4 00 00 09 00 38 89 75 4C 8D 8B 98 87 A7 A6 A7 A6 A0 
HI HI AE 07 88 55 00 D4 00 00 09 00 4E 6C 60 54 8B 89 97 96 A7 A6 A7 A6 A0 
HI HI AE 07 88 55 00 D4 00 00 09 00 60 80 59 60 8B 8A 96 76 A7 A6 A7 A6 A0 
HI HI AE 07 88 55 00 D4 00 00 09 00 54 90 78 52 8E 8C 9D 77 A7 A6 A7 A6 A0 
HI HI AE 07 88 55 00 D4 00 00 09 00 4C 88 7C 4B 8E 8D 9A 80 A7 A6 A7 A6 A1 
HI HI AE 07 88 55 00 D4 00 00 09 00 4E 80 62 55 8D 8C 99 7A A7 A6 A7 A6 A1 
HI HI AE 07 88 55 00 D4 00 00 09 00 52 79 5E 5A 8E 7D 9A 85 A7 A6 A7 A6 A1 
HI HI AE 07 88 55 00 D4 00 00 09 00 61 7D 83 45 91 91 9E 77 A7 A6 A7 A6 A1 
HI HI AE 07 88 55 00 D4 00 00 09 00 5F 93 85 48 90 91 9F 66 A7 A7 A7 A6 A1 
HI HI AE 07 88 55 00 D4 00 00 09 00 47 8E 56 58 8E 8E 9B 6A A7 A6 A7 A6 A1 
HI HI AE 07 88 55 00 D4 00 00 09 00 85 56 66 71 53 91 9F 77 A7 A6 A7 A6 A1 
HI HI AE 07 88 55 00 D4 00 00 09 00 7B 7E 89 47 90 91 9F 88 A7 A6 A7 A6 A1  
HI HI AE 07 88 55 00 D4 00 00 09 00 6B A5 81 45 90 90 B0 71 A7 A6 A7 A6 A1 
HI HI AE 07 88 55 00 D4 00 00 09 00 3E 8D 57 5F 8E 88 B0 8E A7 A6 A7 A6 A1
HI HI AE C7 88 55 00 D4 00 00 09 00 62 55 7A 4C 90 90 B0 91 A7 A6 A7 A6 A1 
HI HI AE C7 88 55 00 D4 00 00 09 00 55 56 81 5F 8F 8F B0 96 A7 A6 A7 A5 A1 
HI HI AE 07 88 55 00 D4 00 00 09 00 66 A2 73 5F 8F 8F B0 7D A7 A6 A7 A6 A1 
HI HI AE C7 88 55 00 D4 00 00 09 00 65 55 7A 5E 8F 8F B0 7D A7 A6 A7 A6 A1  
HI HI AE C7 88 55 00 D4 00 00 09 00 84 49 84 5F 8F 8F B0 82 A6 A6 A7 A5 A1 

AS31924C  03Feb2003
15:17-15:29(JST)
AOS   MEL  LOS  Elev
 24    94  165  31.5
Freq. 435.803-.788Hz
(JAS-2  No.116 B 2270-2770)
HI HI AE 07 88 55 00 D4 00 00 09 00 79 A5 5A 5A 8D 8B 98 8F A7 A6 A7 A6 A1 
HI HI AE 07 88 55 00 D4 00 00 09 00 85 55 73 8E 8F 8D 9B 7F A7 A7 A7 A6 A1 
HI HI AE 07 88 55 00 D4 00 00 09 00 78 A3 7B 48 8F 8E 9E 75 A7 A7 A7 A6 A1 
HI HI AE 07 88 55 00 D4 00 00 09 00 82 A4 63 55 8E 8E 9B 89 A7 A7 A7 A6 A1 
HI HI AE 07 88 55 00 D4 00 00 09 00 92 8A 5F 5A 8E 8E 9B 6A A7 A7 A7 A6 A1 
HI HI AE 07 88 55 00 D4 00 00 09 00 76 7E 81 5F 8E 8F B0 84 A7 A7 A7 A6 A1 
HI HI AE 07 88 55 00 D4 00 00 09 00 6A A0 76 4C 90 91 B0 6E A7 A7 A7 A6 A1 
HI HI AE C7 88 55 00 D4 00 00 09 00 90 97 57 59 8E 8F 9C 81 A7 A6 A7 A6 A1 
HI HI AE C7 88 55 00 D4 00 00 09 00 8C 6C A7 5F 8E 8E B0 6B A7 A6 A7 E6 A1
HI HI AE C7 88 55 00 D4 00 00 09 00 90 55 A1 55 8E 90 B0 67 A7 A6 A7 A6 A1 
HI HI AE C7 88 55 00 D4 00 00 09 00 75 58       8F 8F 9D 75 A7 A6 A6 A6 A1 
HI HI AE 07 88 55 00 D4 00 00 09 00 71 41 75 5F 8E 8F 9C 79 A7 A6 A7 A6 A1 
HI HI AE 07 88 55 00 D4 00 00 09 00 41 6D 7F 5F 8F 8F B0 7D A7 A6 A7 A6 A2 
HI HI AE C7 88 55 00 D4 00 00 09 00 59 61 5C 50 90 90 B0 7C A7 A6 A6 A6 A1 
HI HI AE C7 78 55 00 D4 00 00 09 00 8D 5A 67 5F 8F


AS31884C  29Jan2003
16:11-16:29(JST)
AOS   MEL  LOS  Elev
 12   129  194  89.1
Freq. 435.805-.787Hz
(JAS-2  No.116 B 1430-2270)

HI HI AE 07 88 55 00 D4 00 00 09 00 89 96 54 61 8A 88 94 83 A6 A6 A6 A5 A0 
HI HI AE 07 88 55 00 D4 00 00 09 00 87 95 7A 4B 8D 8B 98 88 A6 A6 A6 A5 A0 
HI HI AE 07 88 55 00 D4 00 00 09 00 4C 83 75 4A 8C 8A 97 7D A6 A6 A6 A5 A0 
HI HI AE 07 88 55 00 D4 00 00 09 00 69 B3 6E 53 8D 8B 97 8E A6 A6 A6 A5 A0 
HI HI AE 07 88 55 00 D4 00 00 09 00 59 A2 7B 4B 8D 8B 98 6A A6 A6 A6 A5 A0 
HI HI AE 07 88 55 00 D4 00 00 09 00 7B 9E 5B 5A 8C 8A 97 A9 A6 A6 A6 A5 A0 
HI HI AE 07 88 55 00 D4 00 00 09 00 77 AE 63 57 8D 8C 99 82 A6 A6 A6 A5 A0 
HI HI AE 07 88 55 00 D4 00 00 09 00 70 AF 71 52 8E 8D 9A 83 A6 A6 A6 A5 A0 
HI HI AE 07 88 55 00 D4 00 00 09 00 78 AD 6E 4F 8E 8D 9A 87 A6 A6 A6 A5 A0 
HI HI AE 07 88 55 00 D4 00 00 09 00 7A AC 60 58 8D 8D 9A 90 A6 A6 A6 A5 A0 
HI HI AE 07 88 55 00 D4 00 00 09 00 85 A6 68 53 8F 84 9A 8A A6 A6 A6 A5 A0 
HI HI AE 07 88 55 00 D4 00 00 09 00 7D A4 77 4E 91 90 B0 80 A6 A6 A7 A5 A0 
HI HI AE 07 88 55 00 D4 00 00 09 00 6F A3 6F 55 90 90 9F 80 A6 A6 A7 A5 A0 
HI HI AE C7 88 55 00 D4 00 00 09 00 8E 9B 5F 59 8F 8F 9D 79 A6 A6 A6 A5 A0 
HI HI AE 07 88 55 00 D4 00 00 09 00 85 82 79 84 8F 90 9D 7F A6 A6 A6 A5 A0 
HI HI AE 07 88 55 00 D4 00 00 09 00 87 85 8F 90 8E 8E B0 6E A5 A6 A7 A5 A0 
HI HI AE 07 88 55 00 D4 00 00 09 00 83 9F 5F 56 8F 8F 9D 8A A6 A6 A6 A5 A1 
HI HI AE C7 88 55 00 D4 00 00 09 00 8F 65 72 50 90 90 9D 93 A6 A6 A6 A5 A1 
HI HI AE 07 88 55 00 D4 00 00 09 00 56 6E 82 5F 8E 8E B0 84 A6 A6 A6 A5 A1 
HI HI AE 07 88 55 02 D4 00 00 09 00 6C A2 6A 54 8E 8C 9D 85 A6 A6 A6 A5 A1 
HI HI AE C7 88 55 00 D4 00 00 09 00 93 5D 65 59 8F 8E B0 76 A6 A6 A6 A5 A1 
HI HI AE 07 88 55 00 D4 00 00 09 00 4C 53 86 55 8F 8E B0 77 A6 A6 A6 A5 A1 
HI HI AE 07 88 55 00 D4 00 00 09 00 4A 58 85 59 78 90 B0 76 A6 A6 A6 A6 A1
HI HI AE 07 88 55 00 D4 00 00 09 00 8F 6B  

AS31883C  29Jan2003
14:35-14:41(JST)
AOS   MEL  LOS  Elev
 36    87  138  12.3
Freq. 435.794-.790Hz
(JAS-2  No.116 B 1150-1430)

HI HI AE O7 88 55 00 D4 00 00 09 00 61 9B 6D 4C 8F 90 B0 B9 A6 A7 A7 A5 A1 
HI HI AE C7 88 55 00 D4 00 00 09 00 61 9B 5C 8F 8F 90 B0 B0 A6 A7 A7 A5 A1
HI HI AE C7 88 55 00 D4 00 00 09 00 50 8F 6F 71 8F 90 B0 79 A6 A6 A7 A5 A1 
HI HI AE 07 88 55 00 D4 00 00 09 00 5A 8E 6E 5F 8E 8F B0 AA A6 A6 A7 A5 A1 
HI HI AE 07 88 55 00 D4 00 00 09 00 55 8E 63 68 8C 85 B0 7C A6 A6 A7 A5 A1 
HI HI AE C7 88 55 00 D4 00 00 09 00 54 94 71 5B 90 90 9D 79 A6 A6 A6 A5 A1 
HI HI AE C7 88 55 0 

AS31858C  29Jan2003
18:03-18:16(JST)
AOS   MEL  LOS  Elev
353   302  249  14.7
Freq. 435.802-.790Hz
(JAS-2  No.116 B 400-1150)

HI HI AE O7 88 55 00 D4 00 00 09 00 61 9B 4C 71 8F 90 B0 B9 A6 A7 A7 A5 A1 
HI HI AE C7 88 55 00 D4 00 00 09 00 61 9B 5C 8F 8F 90 B0 B3 A6 A7 A7 A5 A1 
HI HI AE C7 88 55 00 D4 00 00 09 00 5F 6F 73 51 8F 90 B0 79 A6 A6 A7 A5 A1 
HI HI AE 07 88 55 00 D4 00 00 09 00 5A 90 81 5F 8E 8F B0 8A A6 A6 A7 A5 A1 
HI HI AE 07 88 55 00 D4 00 00 09 00 55 91 5C 8F B0 AE B5 B0 7C A6 A6 A5 A1 
HI HI AE C7 88 55 00 D4 00 00 09 00 54 94 71 59 5B 90 9D 79 I6 A6 A6 A5 A1 
HI HI AE C7 88 55 0

AS31844C  28Jan2003
17:23-17:28(JST)
AOS   MEL  LOS  Elev
  2   293  222  35.3
Freq. 435.790-.788Hz
(JAS-2  No.116 B 0-400)

HI HI AE 07 88 55 00 D4 00 00 09 00 55 7E 7B 61 
HI HI AE 07 88 55 00 D4 00 00 09 00 7D 83 7F 5F 8E 8E B0 7D A7 A5 A7 A6 A1  
HI HI AE 07 88 55 00 D4 00 00 09 00 50 A2 95 5A 90 89 B0 79 A7 A5 A7 A6 A1 
HI HI AE C7 88 55 00 D4 00 00 09 00 52 61 6A 54 90 86 B0 76 A7 A5 A7 A6 A1 
HI HI AE C7 88 55 00 D4 00 00 09 00 8F 7D 7E 54 89 85 B0 77 A7 A5 A7 A6 A1 
HI HI AE 07 88 55 00 D4 00 00 09 00 4E 8A 75 51 88 80 B0 7D A7 A5 A7 A6 A1 
HI HI AE C7 88 55 00 D4 00 00 09 00 5

------------------------  FO-29の軌道要素 ------------------------------        
 
  ■ 軌道要素1:「jamsat−keps:1278」より         
          SB KEPS @ AMSAT  $ORB03030.N
          2Line Orbital Elements 03030.AMSAT

HR AMSAT ORBITAL ELEMENTS FOR AMATEUR SATELLITES IN NASA FORMAT
FROM WA5QGD FORT WORTH,TX January 30, 2003
SEND SUBSCRIBE/UNSUBSCRIBE TO majordomo@amsat.org ONLY
BID: ORB03030.N

 DECODE 2-LINE ELSETS WITH THE FOLLOWING KEY:
 1 AAAAAU 00  0  0 BBBBB.BBBBBBBB  .CCCCCCCC  00000-0  00000-0 0  DDDZ
 2 AAAAA EEE.EEEE FFF.FFFF GGGGGGG HHH.HHHH III.IIII JJ.JJJJJJJJKKKKKZ
 KEY: A-CATALOGNUM B-EPOCHTIME C-DECAY D-ELSETNUM E-INCLINATION F-RAAN
 G-ECCENTRICITY H-ARGPERIGEE I-MNANOM J-MNMOTION K-ORBITNUM Z-CHECKSUM

FO-29
1 24278U 96046B   03029.94283167 -.00000009  00000-0  29599-4 0 05671
2 24278 098.5329 183.8297 0349995 267.4507 088.6526 13.52870113318658

 ■ 軌道要素2:「jamsat−keps:1277」より 
       SB KEPS @ AMSAT  $ORB03030.O
       Orbital Elements  03030.OSCAR

HR AMSAT ORBITAL ELEMENTS FOR OSCAR SATELLITES
FROM WA5QGD FORT WORTH,TX January 30, 2003
SEND SUBSCRIBE/UNSUBSCRIBE TO majordomo@amsat.org ONLY
BID: ORB03030.O
TO ALL RADIO AMATEURS BT

Satellite: FO-29
Catalog number: 24278
Epoch time:      03029.94283167
Element set:    0567
Inclination:      098.5329 deg
RA of node:       183.8297 deg
Eccentricity:    0.0349995
Arg of perigee:   267.4507 deg
Mean anomaly:     088.6526 deg
Mean motion:   13.52870113 rev/day
Decay rate:       -9.0e-08 rev/day^2
Epoch rev:           31865
Checksum:              361

-------------------  FO-29(JAS-2)のテレメトリに関する情報  ---------------------- 
 
2)上記2003年2月3日(月)のテレメトリの16:56のパスの最終行を分析して
 おきます。

AS31925C  03Feb2003
16:57-17:14(JST)
AOS   MEL  LOS  Elev
  4   292  217  40.6
Freq. 435.805-.788Hz
(JAS-2  No.116 B 2770-3135 END  No.117 A 0-220)

HI HI AE C7 88 55 00 D4 00 00 09 00 84 49 84 5F 8F 8F B0 82 A6 A6 A7 A5 A1 

テレメトリ   内 容        換算算値 単 位
3C	磁気センサーZ軸=	64705.9	[nT]
3D	磁気センサX軸	=	35784.3	[nT]
4A	太陽電池発生電流=	1294.1	[mA]
4B	B充放電電流	=	-138.0	[mA]
4C	B端子電圧	=	15.4	[V]
4D	B中間端子電圧	=	6.9	[V]
5A	バス電圧	=	17.3	[V]
5B	JTA送信電力	=	746.9	[mW]
5C 	構体温度1	=	17.4	[℃]
5D	構体温度2	=	17.4	[℃]
6A	構体温度3	=	17.0	[℃]
6B	構体温度4	=	17.8	[℃]
6C	Bセル温度	=	19.4	[℃]

 ========================== FO-29(ふじ3号)のテレメトリ分析、QSO情報等 =====================
   
 3)[jamsat-bb:

 =================================================================================================
 
 4)JARL のホームページに運用予定が記載されていましたのでご紹介します.
       ( http://www.jarl.or.jp/Japanese/3_Fuji/new/uy.htm )
       
        *** 運用予定について ***

        当分の間     アナログ系運用

  * なお,運用予定は都合により,変更することがありますの,であらかじめご了承願います。

 照会先 : lab@jarl.or.jp

